Location: Burbank
(38.7788°N, 114.0429°W)
Time: 11:33:11
(UTC+00:00)

Vanguard 2 - Pass Details

Date: 19 May 2026
Orbit: 553 x 2894 km, 32.9° (Epoch: 11 June)

Event Time Altitude Azimuth Distance (km) Brightness Sun altitude
Rises 13:11:06 0° 279° (W) 6,735 11.8 8.3°
Reaches altitude 10° 13:15:52 10° 275° (W) 5,679 11.4 9.1°
Maximum altitude 13:31:45 50° 208° (SSW) 2,899 10.3 12.1°
Drops below altitude 10° 13:43:04 10° 137° (SE) 4,125 11.7 14.2°
Sets 13:45:57 0° 132° (SE) 4,831 12.1 14.8°
